Wind_Speed
5 7 8 9 10 11 12 12 11 11 10 8 8 8 9 9 9 8 7 6 7 7 6 3 5 5 7 7 10 10 12 11 11 11 12 14 14 15 15 16 19 22 25
5 6 8 9 9 10 11 11 11 10 10 9 7 6 8 8 8 8 8 8 7 8 8 9 7 6 5 5 9 12 10 9 9 9 11 12 13 15 15 16 17 19 18
5 7 8 8 8 10 11 10 10 10 9 8 8 6 6 6 7 7 9 9 9 7 8 8 8 8 7 5 4 9 11 8 8 10 9 9 10 11 14 17 18 20 22
5 6 7 8 8 9 9 10 10 9 9 9 7 5 5 5 5 7 9 8 8 8 9 8 8 8 8 8 6 5 10 7 10 8 5 7 7 10 15 16 16 21 24
5 6 7 8 8 9 9 9 10 10 9 8 7 5 4 7 6 8 9 9 9 9 9 9 9 9 9 9 8 9 13 9 9 9 9 8 11 12 14 13 17 22 25
4 6 6 7 7 8 9 9 10 11 10 10 7 4 2 4 6 8 10 10 11 10 10 9 10 11 10 9 9 6 10 11 10 9 6 8 10 10 12 15 20 22 21
4 5 6 6 7 8 8 9 9 9 9 9 6 3 2 1 3 6 7 9 10 12 12 12 10 10 11 9 7 7 4 2 10 8 6 6 8 11 14 17 20 18 16
4 5 5 6 7 8 8 8 9 10 10 10 9 4 2 1 6 2 4 7 9 12 11 13 13 11 11 10 8 7 6 6 6 5 7 10 10 12 14 17 17 14 16
4 4 5 6 6 7 8 8 8 9 9 9 8 6 3 3 8 3 4 7 9 14 13 11 14 11 10 10 10 9 8 8 10 10 12 13 15 16 14 16 19 18 15
4 4 4 5 6 7 7 8 8 8 8 8 8 7 5 5 4 4 4 6 10 15 12 12 12 11 11 10 10 10 8 9 11 12 12 14 14 15 16 16 18 20 14
5 4 4 5 6 7 7 7 8 8 8 7 7 7 6 7 6 6 9 11 10 11 11 14 9 11 11 10 12 12 11 10 11 11 11 14 15 15 17 14 14 17 15
6 5 5 5 5 6 7 7 7 7 7 8 8 8 8 7 8 8 13 17 18 12 14 11 9 10 10 12 11 12 13 13 13 14 14 16 18 17 16 16 11 9 11
7 6 6 6 6 7 7 7 7 8 8 8 8 8 9 9 11 12 14 16 19 21 14 7 12 9 10 11 12 13 13 15 16 17 18 20 17 17 17 15 15 13 13
10 9 8 8 8 9 9 9 8 8 8 8 9 9 10 10 12 13 15 16 20 20 21 17 9 13 10 13 15 18 17 16 18 19 20 22 20 16 15 15 15 15 15
11 11 10 10 10 11 11 11 10 10 11 11 11 12 13 11 13 14 14 15 16 17 25 19 19 16 17 21 24 24 22 20 20 20 20 19 20 20 18 16 15 15 15
11 12 12 12 12 12 12 13 13 13 14 13 14 15 16 15 16 17 17 17 18 19 23 26 28 26 24 24 23 24 25 24 23 22 22 22 21 20 19 18 17 15 14
11 11 12 12 13 13 14 14 15 15 17 17 17 19 20 20 20 20 20 20 21 22 26 29 29 30 29 27 25 24 24 25 25 24 24 24 23 20 20 19 18 17 16
9 9 11 12 13 14 15 16 17 18 19 19 20 21 22 22 23 23 24 24 24 24 26 30 30 32 34 32 29 29 27 27 26 25 24 24 23 23 21 20 20 18 17
7 8 8 9 10 11 12 13 15 16 17 18 20 21 22 23 24 23 24 25 25 26 28 30 32 31 34 35 36 33 31 31 28 26 26 25 25 24 24 21 20 20 19
2 3 4 5 7 9 10 12 13 15 17 18 19 21 22 23 24 26 26 27 27 29 30 31 33 34 33 34 36 38 38 34 34 30 27 27 27 25 24 23 22 21 21
4 6 6 8 9 11 13 15 17 18 19 20 20 21 21 22 22 22 24 25 27 29 30 33 36 37 37 35 33 35 38 37 38 34 33 29 28 26 24 25 24 23 21
8 10 12 14 14 15 15 16 18 20 21 22 23 23 23 23 23 23 23 22 21 23 26 29 33 34 35 34 34 32 30 31 35 32 31 32 29 27 24 25 26 25 23
12 13 14 15 16 16 17 18 18 20 21 22 23 23 23 23 24 24 25 25 24 23 21 22 25 26 28 26 27 29 32 35 37 36 30 39 37 36 30 27 25 24 24
15 16 17 17 18 18 19 20 21 22 23 22 22 23 24 25 24 26 28 28 27 24 23 23 23 23 22 23 24 26 29 31 34 36 31 38 36 38 33 30 26 26 26
17 17 18 19 20 20 20 21 21 22 22 22 21 21 24 26 25 26 24 25 25 27 26 25 25 26 27 27 27 25 25 26 29 32 29 27 31 33 37 35 32 29 28
19 20 21 20 21 22 21 20 19 19 22 24 26 28 24 22 22 24 22 21 23 26 27 29 28 28 28 28 28 28 28 27 27 31 26 22 28 27 31 35 34 32 27
Wind_Direction
334 335 338 342 347 348 349 348 349 351 353 359 355 352 1 13 17 20 22 11 4 10 24 336 304 315 322 339 348 331 322 302 296 290 281 279 278 275 268 268 265 264 257
330 334 338 344 347 346 349 347 352 356 357 360 357 357 6 15 8 14 26 11 358 352 357 3 2 349 337 0 9 346 334 334 313 300 288 290 285 283 283 278 274 268 264
332 338 340 342 345 345 349 347 355 356 359 1 357 3 11 22 15 15 14 9 11 360 357 360 4 2 358 355 33 357 352 348 351 328 312 293 292 291 287 283 278 269 260
330 336 337 338 342 347 350 351 358 0 360 359 1 6 21 36 9 11 15 12 12 4 360 359 358 354 357 0 333 359 344 330 338 354 324 301 307 310 304 290 292 286 269
323 331 337 340 343 350 352 1 359 359 4 4 4 16 52 54 53 24 9 10 8 4 358 350 346 342 347 1 1 11 9 337 344 354 353 316 304 312 325 297 289 294 274
318 330 336 338 342 348 357 1 1 358 3 8 10 23 85 64 64 34 27 20 10 7 357 343 331 327 333 350 0 352 41 17 3 2 355 338 330 326 321 314 309 304 289
309 326 333 337 344 350 357 1 2 2 3 8 19 35 57 75 26 7 23 21 20 15 12 1 346 330 324 333 340 350 337 63 41 19 5 360 352 342 333 324 324 322 296
298 320 332 343 348 350 353 356 359 1 3 6 15 19 15 37 357 7 2 356 0 1 1 359 357 342 332 329 330 322 311 288 269 298 304 345 316 317 324 326 335 340 310
286 315 332 343 346 345 346 349 354 359 2 1 11 20 348 335 343 327 329 332 342 345 349 353 352 353 345 339 340 336 317 293 300 304 302 310 307 301 307 308 318 325 323
272 302 323 334 340 340 341 344 347 352 354 353 349 352 349 336 336 322 322 333 330 331 337 345 349 352 345 343 342 339 327 310 303 308 303 309 314 313 304 296 292 300 316
265 285 311 324 333 334 334 336 341 342 342 340 337 334 331 325 312 313 320 323 328 338 341 333 335 350 353 348 341 337 337 327 320 319 316 314 314 314 311 311 286 287 304
262 279 294 304 313 320 325 330 333 331 330 329 326 323 319 315 308 306 309 321 325 336 338 337 332 333 340 347 345 336 332 329 324 321 321 320 315 314 312 310 302 288 283
261 269 281 289 297 304 310 316 323 324 326 326 322 316 312 307 304 305 305 313 316 321 329 329 333 327 323 332 336 334 331 325 320 316 314 317 315 315 315 310 304 291 270
257 263 268 276 285 288 293 301 307 310 313 316 315 311 308 306 301 299 300 304 311 311 314 320 321 323 312 317 323 318 316 318 318 316 313 312 313 309 307 308 304 301 296
255 261 265 270 275 280 283 286 290 294 297 300 300 299 300 300 298 297 296 295 294 297 305 304 306 312 311 308 310 308 305 308 311 314 315 310 307 308 305 300 300 299 296
255 258 261 266 269 272 275 278 283 286 287 290 291 290 291 294 293 294 293 291 288 284 278 290 296 297 296 296 300 300 299 299 302 305 307 307 304 302 299 296 293 293 294
250 254 261 267 271 273 274 278 282 285 286 287 288 288 289 290 288 288 287 286 285 285 281 287 288 292 293 294 293 293 294 294 294 296 298 299 299 296 293 291 288 285 284
268 272 277 280 281 283 285 286 287 289 290 291 291 290 289 289 288 289 289 288 286 285 285 286 288 289 290 291 291 289 289 290 292 293 292 292 292 291 288 285 285 279 275
279 287 290 290 288 290 292 293 295 294 294 293 293 293 293 290 289 287 284 284 286 287 287 288 290 289 289 290 292 290 287 286 289 291 288 286 285 284 284 283 278 274 270
19 350 333 325 318 313 309 307 303 299 297 296 295 293 293 292 291 291 290 289 289 289 289 290 290 290 289 289 290 293 293 290 288 286 283 282 280 279 277 277 276 273 269
1 344 328 317 312 309 308 305 302 301 300 297 295 295 295 295 294 295 296 295 290 289 290 290 291 293 295 296 293 293 294 293 287 286 284 279 279 279 273 271 271 273 268
336 327 321 318 314 312 308 303 303 301 300 301 302 299 299 297 296 293 291 292 296 297 291 287 288 290 293 295 296 295 295 296 301 288 288 284 276 274 273 273 270 268 264
335 329 322 317 313 310 306 301 299 298 298 297 299 301 301 300 300 299 294 291 289 291 294 295 288 288 293 295 297 297 291 290 291 291 291 280 276 271 267 275 268 264 260
327 323 319 315 311 308 305 302 301 298 298 297 298 299 301 302 301 303 302 297 293 292 292 292 293 294 298 295 295 298 294 292 291 292 289 282 281 275 273 271 269 263 258
321 318 315 312 309 308 308 307 306 304 302 301 301 301 302 302 303 305 304 297 289 286 290 290 288 290 292 294 294 296 299 298 296 292 292 286 283 284 276 271 268 267 255
314 311 310 309 310 310 310 308 309 306 300 297 295 298 302 302 304 304 303 303 302 300 300 299 297 293 290 288 288 290 294 293 296 300 298 288 288 290 282 272 267 263 251
Height
1540 1540 1539 1537 1536 1534 1533 1531 1530 1528 1526 1525 1523 1522 1521 1519 1518 1517 1516 1515 1515 1514 1513 1512 1512 1512 1511 1511 1511 1510 1508 1507 1507 1507 1506 1505 1505 1505 1506 1506 1506 1506 1507
1540 1539 1538 1537 1535 1534 1532 1531 1529 1527 1526 1524 1523 1521 1520 1519 1518 1518 1516 1516 1515 1514 1513 1511 1510 1510 1510 1510 1510 1508 1507 1505 1504 1504 1504 1504 1503 1502 1503 1503 1503 1502 1502
1539 1539 1537 1536 1535 1533 1532 1530 1528 1526 1525 1524 1523 1521 1520 1519 1518 1518 1516 1515 1514 1513 1512 1511 1510 1509 1508 1508 1508 1508 1506 1504 1503 1501 1501 1501 1501 1500 1499 1498 1498 1498 1497
1538 1538 1537 1536 1534 1532 1531 1529 1527 1526 1525 1523 1522 1521 1520 1519 1519 1518 1517 1516 1515 1514 1512 1511 1510 1509 1508 1507 1506 1506 1504 1503 1501 1499 1499 1498 1498 1497 1498 1497 1496 1494 1493
1538 1537 1536 1535 1534 1532 1530 1528 1527 1526 1524 1524 1522 1521 1521 1520 1519 1519 1518 1517 1515 1514 1512 1510 1509 1508 1507 1506 1505 1504 1504 1501 1500 1499 1498 1498 1496 1496 1494 1492 1491 1489 1487
1536 1536 1535 1534 1533 1532 1529 1528 1527 1525 1524 1523 1522 1520 1520 1520 1520 1519 1518 1517 1515 1514 1512 1511 1509 1507 1506 1505 1504 1503 1503 1502 1500 1499 1497 1497 1495 1494 1493 1491 1489 1485 1482
1535 1535 1534 1533 1532 1531 1529 1528 1526 1525 1524 1523 1522 1521 1520 1520 1520 1519 1518 1517 1515 1514 1512 1510 1508 1506 1504 1504 1503 1502 1501 1501 1500 1499 1498 1496 1495 1494 1492 1489 1486 1481 1479
1534 1534 1533 1532 1531 1530 1529 1528 1526 1525 1524 1523 1522 1520 1519 1520 1519 1518 1518 1517 1515 1514 1512 1510 1507 1505 1504 1503 1502 1501 1500 1499 1499 1498 1497 1496 1493 1492 1490 1487 1484 1479 1477
1533 1533 1532 1531 1531 1530 1529 1528 1526 1525 1524 1524 1522 1522 1520 1519 1516 1517 1516 1516 1515 1513 1511 1509 1507 1504 1503 1502 1501 1499 1498 1497 1497 1496 1495 1493 1491 1489 1487 1485 1482 1478 1476
1532 1532 1531 1531 1530 1530 1529 1527 1526 1525 1524 1524 1523 1522 1521 1520 1518 1516 1515 1514 1514 1512 1510 1509 1506 1504 1503 1501 1500 1499 1497 1496 1495 1494 1493 1491 1489 1487 1484 1482 1481 1478 1476
1530 1530 1530 1530 1529 1529 1528 1527 1526 1525 1524 1524 1523 1522 1521 1519 1518 1517 1513 1513 1512 1511 1509 1507 1505 1504 1502 1501 1500 1498 1497 1495 1494 1492 1491 1489 1486 1485 1482 1480 1479 1477 1477
1528 1529 1529 1529 1528 1528 1527 1526 1525 1524 1524 1523 1522 1521 1520 1520 1518 1517 1514 1511 1509 1509 1508 1506 1505 1503 1502 1500 1499 1498 1496 1494 1492 1490 1489 1487 1484 1482 1480 1478 1477 1476 1475
1526 1526 1527 1527 1527 1526 1526 1525 1524 1524 1522 1522 1521 1520 1519 1519 1517 1516 1513 1511 1507 1505 1504 1504 1503 1502 1500 1499 1498 1496 1495 1493 1491 1488 1486 1483 1481 1479 1477 1476 1474 1473 1472
1523 1523 1524 1524 1524 1524 1524 1523 1522 1522 1521 1520 1519 1519 1518 1517 1516 1514 1512 1510 1506 1503 1501 1501 1501 1500 1498 1497 1496 1494 1492 1490 1488 1486 1484 1480 1478 1476 1474 1473 1472 1470 1468
1520 1520 1521 1521 1521 1521 1521 1520 1520 1519 1518 1517 1517 1516 1515 1515 1513 1512 1511 1509 1507 1503 1499 1497 1498 1497 1496 1494 1493 1490 1488 1486 1484 1482 1480 1478 1475 1473 1472 1470 1468 1467 1466
1517 1517 1517 1518 1518 1518 1517 1517 1516 1515 1514 1514 1513 1512 1512 1511 1510 1509 1507 1506 1504 1502 1498 1495 1493 1493 1493 1490 1489 1486 1484 1482 1480 1478 1476 1474 1472 1470 1468 1466 1465 1463 1462
1514 1514 1515 1515 1514 1514 1514 1513 1512 1512 1511 1510 1509 1508 1507 1506 1505 1504 1502 1501 1499 1497 1492 1490 1489 1487 1485 1484 1483 1481 1479 1476 1474 1473 1471 1469 1467 1466 1464 1463 1461 1460 1459
1512 1512 1512 1512 1511 1511 1510 1510 1509 1508 1507 1505 1504 1503 1502 1501 1500 1499 1497 1495 1493 1492 1488 1483 1483 1481 1479 1478 1477 1474 1473 1470 1468 1467 1466 1463 1462 1460 1460 1459 1457 1456 1455
1509 1509 1509 1508 1508 1507 1507 1506 1504 1503 1502 1501 1499 1498 1497 1495 1493 1492 1490 1488 1487 1485 1482 1477 1474 1474 1472 1471 1468 1467 1466 1463 1462 1461 1459 1458 1456 1455 1453 1454 1453 1451 1450
1507 1507 1507 1506 1505 1504 1503 1502 1500 1499 1498 1497 1495 1494 1492 1490 1488 1486 1484 1482 1480 1477 1475 1471 1468 1465 1465 1465 1462 1459 1456 1456 1453 1453 1452 1451 1450 1449 1447 1446 1446 1446 1445
1506 1505 1505 1504 1503 1501 1499 1498 1496 1495 1493 1492 1491 1489 1487 1484 1483 1480 1477 1475 1472 1470 1467 1465 1461 1459 1457 1456 1456 1453 1448 1446 1443 1444 1443 1443 1443 1442 1441 1440 1439 1439 1439
1503 1503 1501 1500 1499 1497 1495 1493 1491 1489 1488 1486 1484 1482 1480 1478 1476 1474 1472 1470 1467 1464 1461 1459 1456 1453 1451 1450 1448 1446 1443 1439 1434 1437 1434 1433 1435 1433 1434 1434 1433 1432 1432
1500 1499 1498 1496 1494 1492 1491 1489 1487 1485 1482 1480 1478 1476 1473 1472 1470 1467 1465 1462 1460 1459 1457 1454 1450 1448 1445 1444 1442 1439 1437 1434 1430 1429 1429 1422 1425 1423 1426 1426 1426 1426 1426
1496 1494 1493 1491 1489 1488 1486 1484 1481 1478 1476 1474 1472 1470 1468 1465 1464 1461 1457 1454 1453 1451 1450 1448 1445 1442 1440 1438 1437 1434 1431 1427 1423 1420 1422 1416 1416 1413 1417 1418 1419 1419 1419
1491 1490 1488 1486 1484 1483 1480 1477 1474 1471 1469 1467 1466 1464 1462 1459 1457 1455 1451 1448 1445 1443 1442 1441 1439 1436 1434 1432 1431 1428 1425 1422 1417 1415 1414 1410 1408 1407 1406 1407 1410 1411 1412
1486 1485 1483 1481 1479 1476 1474 1471 1469 1466 1463 1461 1459 1457 1455 1453 1451 1449 1446 1443 1439 1437 1435 1432 1430 1428 1427 1424 1424 1422 1420 1416 1414 1408 1407 1407 1404 1402 1399 1397 1399 1402 1404